RH
21 23 30 35 25 22 29 39 44 49 50 48 43 37 36 30 24 26 29 35 34 34 31 24 21 25 34 35 40 40 53 42 37 34 25 26 34 48 49 49 50 48 44 43 46
25 22 24 35 31 25 34 44 45 51 53 50 49 46 47 44 39 36 50 41 39 36 38 39 39 36 26 32 47 46 43 36 36 34 30 32 38 50 51 52 51 50 49 44 47
30 25 22 27 36 27 35 41 45 55 60 53 49 50 50 49 44 40 49 47 44 42 46 46 40 46 49 38 39 48 36 37 39 36 38 35 36 42 52 54 53 57 55 50 42
30 31 25 23 32 35 30 36 44 52 58 55 58 59 56 55 48 45 45 47 49 49 45 45 44 48 52 57 45 49 43 48 38 40 41 36 33 36 43 48 57 62 60 56 52
27 34 28 25 27 38 33 30 39 48 54 60 63 59 56 55 50 54 52 50 47 43 42 47 53 63 57 59 55 53 43 51 53 44 44 44 37 39 38 46 54 60 62 60 55
12 27 33 26 28 34 41 31 31 42 48 57 60 52 50 54 56 52 50 52 50 49 45 44 44 60 71 72 71 56 57 50 51 50 49 50 43 46 34 43 53 58 62 62 59
13 14 28 32 29 31 39 41 30 31 41 48 51 59 49 62 52 52 54 55 54 52 48 48 53 56 66 76 81 68 60 61 62 50 53 50 40 35 38 36 43 57 62 62 59
42 13 21 33 28 36 37 46 38 29 34 42 48 43 59 59 47 50 55 56 57 55 52 50 55 75 87 97 98 95 87 73 51 55 56 55 38 35 36 33 38 50 57 64 56
82 69 36 29 32 34 40 49 46 33 29 35 40 35 38 52 51 45 51 58 54 52 53 56 72 83 98 99 98 98 96 93 89 62 66 62 45 46 45 54 34 38 44 52 49
99 89 98 85 70 37 45 51 48 42 31 30 28 32 31 39 52 58 57 57 54 56 59 62 99 100 98 98 95 99 98 93 87 74 86 76 81 83 70 71 53 50 58 50 49
99 96 89 80 60 84 51 53 49 46 41 31 35 34 49 48 50 57 52 57 60 59 61 66 96 97 93 98 96 94 95 96 99 96 77 71 86 68 64 62 60 48 55 56 55
99 99 97 87 97 96 76 57 49 54 46 35 28 27 26 29 43 65 61 69 68 64 63 80 72 70 94 99 95 89 93 97 96 89 83 74 59 58 59 54 54 46 47 50 49
98 97 98 90 97 100 96 69 64 61 50 42 40 38 38 58 72 60 68 85 86 88 75 69 74 60 71 67 72 69 72 82 86 77 72 80 47 36 35 43 42 39 36 46 44
82 99 98 98 86 99 99 86 71 56 64 49 47 54 45 55 70 60 72 94 100 96 94 98 90 82 75 79 70 96 78 69 65 87 92 80 73 47 48 33 39 37 42 46 54
99 98 98 99 86 98 82 91 66 63 85 59 62 60 66 75 65 75 81 100 100 100 99 95 83 71 73 63 69 98 75 86 84 80 83 76 97 64 48 34 32 38 42 39 54
96 99 98 98 95 96 97 86 70 82 92 73 74 74 69 63 71 79 87 100 99 100 98 88 92 97 85 78 80 94 92 96 97 99 95 85 87 59 46 26 21 40 42 37 45
62 98 98 98 92 98 95 83 96 97 62 70 63 58 59 79 86 85 97 99 99 98 99 99 98 100 96 88 90 97 99 97 98 95 83 65 72 55 34 34 24 18 38 35 40
50 98 98 98 96 99 94 93 86 67 59 65 61 68 70 76 90 100 98 98 99 100 98 98 96 84 92 88 86 82 84 95 90 93 80 48 57 42 22 17 14 30 29 46 47
62 99 98 98 97 98 97 99 72 69 59 55 64 99 100 100 100 100 99 96 95 99 100 96 93 84 73 83 90 98 98 72 96 97 97 66 46 46 25 17 17 21 39 41 52
89 82 98 99 99 100 99 86 76 70 69 70 74 82 100 99 99 99 92 64 74 76 94 93 97 76 74 94 98 97 91 96 97 96 94 67 72 58 35 26 14 15 33 31 43
93 98 98 97 99 98 98 93 82 84 85 85 86 89 99 98 96 94 79 61 63 62 74 100 99 92 91 94 88 99 99 95 89 78 91 90 59 44 41 22 33 25 40 45 46
93 100 95 99 98 99 100 97 83 90 90 91 95 92 99 99 93 92 85 64 57 70 85 86 100 100 86 82 76 76 67 89 86 82 74 70 62 52 56 51 62 51 46 52 45
97 98 98 98 99 99 97 96 91 92 87 89 91 94 98 99 97 96 78 70 74 62 75 78 97 96 92 95 96 97 97 88 76 84 69 70 43 30 58 56 59 53 57 50 45
98 97 98 98 98 83 85 95 88 92 95 96 96 98 99 100 99 89 80 76 71 66 91 97 97 94 90 95 95 99 99 96 96 96 78 74 63 31 52 70 60 59 52 49 43
98 96 94 98 98 86 97 93 88 94 91 94 98 100 98 98 99 84 65 65 73 84 97 98 98 98 97 97 98 96 99 99 99 87 84 60 78 69 77 84 62 62 48 46 48
98 96 98 94 62 97 97 93 90 99 97 94 97 99 99 98 94 72 62 67 74 89 98 98 97 98 94 100 100 99 99 100 97 100 83 75 80 51 95 81 67 54 49 45 45
98 85 89 84 88 95 97 99 89 100 98 100 99 99 99 99 98 72 78 80 94 98 99 99 98 98 98 100 97 98 93 83 70 77 86 93 52 97 73 68 57 53 47 44 45
Wind_Speed
22 21 19 18 17 16 14 16 17 16 15 15 16 18 19 21 20 21 20 20 19 19 20 20 22 24 26 28 28 30 33 42 41 37 30 21 22 17 16 15 11 14 15 15 16
23 22 22 19 17 17 16 16 17 16 16 15 16 18 19 18 20 22 13 20 22 23 22 21 21 23 26 29 30 34 41 46 42 37 32 27 24 19 20 16 15 17 18 17 17
23 23 22 21 18 18 17 16 16 15 14 15 17 19 19 17 20 23 19 21 23 24 24 23 23 24 26 30 33 38 46 42 42 36 35 32 33 30 27 22 18 16 17 18 23
26 24 23 22 20 19 18 17 16 16 15 16 18 20 21 19 12 15 10 11 19 24 21 24 23 25 26 30 33 39 42 42 42 38 36 36 33 34 34 32 24 17 20 21 21
29 26 25 24 21 20 19 18 18 17 17 16 16 18 20 21 19 19 20 17 13 13 14 15 19 22 26 27 29 36 40 40 40 39 40 38 39 38 39 33 31 27 21 21 22
29 29 27 26 23 21 20 19 19 19 18 17 14 14 17 20 17 17 18 20 21 19 19 19 14 16 25 26 29 30 31 38 41 40 41 42 43 39 42 34 36 33 30 27 26
29 30 29 28 25 23 21 20 20 21 21 20 18 15 12 10 15 16 16 18 20 19 21 22 22 21 21 24 28 31 35 36 34 35 40 38 50 52 43 39 41 40 35 34 32
30 29 29 29 26 24 23 21 21 22 23 23 21 18 17 16 14 12 14 16 18 18 17 20 20 21 24 23 18 19 28 33 30 33 32 32 59 40 39 41 43 44 41 37 33
31 27 28 29 28 26 23 22 22 23 24 25 24 20 18 20 19 16 16 17 18 19 16 18 20 20 24 25 24 24 27 21 15 23 24 32 48 36 38 34 45 46 46 43 34
32 28 26 27 25 27 24 24 25 23 26 25 26 19 18 18 13 10 10 12 18 20 20 22 24 25 25 26 20 16 22 25 26 24 17 32 45 44 40 33 38 46 45 44 35
28 32 26 27 27 25 27 26 25 24 26 24 17 9 9 12 16 18 16 17 19 23 24 27 31 35 34 33 32 33 27 25 19 15 24 35 39 42 45 45 42 43 45 41 32
30 30 29 27 27 26 28 28 22 23 20 20 21 23 23 24 24 22 19 18 20 24 24 27 38 36 33 33 35 37 37 35 36 33 29 35 48 43 45 45 47 41 45 41 36
31 38 31 31 28 31 28 23 20 20 22 23 23 23 23 27 28 23 20 19 20 21 24 30 22 20 33 35 34 35 35 34 35 31 32 35 56 48 45 43 42 47 45 41 39
44 38 34 31 36 33 30 21 18 17 11 14 16 17 21 28 26 20 22 18 23 24 20 26 31 33 28 25 26 31 31 27 29 25 17 10 15 33 26 38 41 43 45 38 36
49 33 36 39 41 35 26 19 19 12 2 7 15 12 11 13 6 5 11 22 27 25 25 22 20 21 32 31 23 23 21 22 22 23 24 32 18 21 19 38 38 41 43 43 37
45 40 39 40 35 29 22 23 19 8 7 9 12 13 12 11 8 8 9 15 22 27 32 30 32 28 29 22 31 24 16 14 12 18 17 26 24 40 36 43 36 36 35 38 41
57 36 31 39 38 26 27 27 15 7 6 9 13 12 9 11 12 11 13 24 22 15 25 30 35 34 31 29 26 24 24 5 8 9 9 3 21 40 23 15 28 34 27 35 40
49 26 25 40 37 31 32 31 8 6 13 7 12 11 12 11 12 13 14 20 24 30 17 17 14 28 34 37 28 33 34 9 6 5 5 24 18 36 38 34 39 24 29 30 34
30 36 33 42 41 35 36 30 17 12 11 11 9 8 10 12 10 9 18 24 25 26 19 7 14 16 20 31 36 20 32 39 11 9 6 11 31 35 37 38 31 29 30 29 33
29 43 27 39 36 37 39 30 17 16 12 11 7 7 9 10 12 11 11 5 13 21 24 19 17 17 12 22 36 33 14 13 19 4 6 11 19 24 20 19 22 31 35 36 36
31 15 31 44 35 35 39 27 22 18 13 10 12 11 11 13 16 12 8 5 9 10 19 24 17 10 17 25 30 30 35 15 12 14 4 4 11 17 24 30 32 26 28 33 34
22 12 32 44 42 43 42 35 30 24 19 18 18 17 16 14 14 15 15 9 8 12 18 23 14 23 35 25 26 34 37 43 13 10 21 14 19 16 22 21 14 14 26 31 29
11 14 32 46 44 45 36 34 29 24 17 15 13 11 10 16 9 17 12 5 14 14 10 18 15 11 11 23 34 37 39 34 45 15 25 11 23 26 19 15 14 11 14 24 21
9 22 40 43 41 37 36 33 31 27 21 22 21 13 11 15 20 7 10 0 4 14 17 26 26 22 17 13 11 32 40 42 42 31 31 33 39 42 26 17 11 23 18 18 19
16 31 46 44 41 40 29 17 24 22 20 19 14 14 14 16 17 27 18 12 17 20 24 28 32 33 38 41 38 33 28 33 44 55 37 36 33 38 24 18 9 17 17 16 17
14 32 44 25 33 35 24 32 17 15 17 15 17 10 12 23 23 5 16 14 15 18 22 29 35 32 39 22 19 35 29 34 41 43 44 28 36 33 13 7 16 11 14 18 19
15 34 33 12 35 33 32 27 16 21 17 12 11 10 11 16 19 17 10 11 16 24 23 25 27 18 9 5 11 9 26 29 34 35 35 35 33 26 9 12 11 14 16 15 15
Wind_Direction
279 279 278 277 277 271 261 261 266 266 260 258 260 262 261 265 261 253 253 247 246 246 244 241 242 243 239 239 239 238 234 242 242 242 240 230 226 229 226 230 236 263 265 253 239
276 278 277 277 275 272 264 259 265 269 264 263 261 260 259 264 270 266 257 256 252 251 248 245 243 240 241 238 234 234 237 242 245 247 249 246 243 215 227 237 238 255 267 257 241
269 272 274 274 273 269 266 262 263 266 267 266 262 263 258 258 267 274 259 255 256 251 250 245 244 242 240 241 235 238 242 246 248 249 250 248 244 236 237 238 232 254 268 280 245
266 266 267 267 269 267 264 263 261 263 267 269 267 263 263 257 256 266 271 249 243 252 247 251 249 243 246 243 242 241 245 248 251 250 252 250 247 241 239 239 236 242 259 266 248
268 262 263 262 262 263 261 259 259 259 265 271 272 269 266 258 253 259 265 259 250 249 253 244 244 243 246 251 248 248 249 248 252 251 250 250 245 248 239 234 234 237 234 245 252
265 262 257 259 258 257 259 258 256 256 260 265 267 273 263 263 251 246 250 254 259 255 246 242 246 249 249 251 249 251 252 252 249 246 249 248 248 243 240 231 233 238 240 238 237
263 260 257 255 254 254 254 256 256 254 255 258 261 261 266 245 248 250 243 247 252 255 247 241 242 245 249 258 254 252 254 253 251 252 251 252 252 239 239 233 232 234 243 247 246
261 260 255 254 251 252 254 253 253 254 255 257 259 258 256 263 267 262 256 249 252 251 248 247 239 234 236 241 245 258 258 262 263 252 252 249 254 250 246 238 237 238 241 250 253
257 251 251 250 249 245 249 251 252 251 254 257 259 261 262 262 263 255 251 243 245 248 247 236 240 238 232 238 253 254 252 258 269 258 251 243 256 260 251 245 239 239 241 247 249
253 249 240 245 235 240 241 245 248 249 252 256 264 266 254 248 244 231 226 237 235 238 235 231 228 233 232 227 231 244 254 262 269 264 266 250 257 257 253 253 243 239 241 246 254
245 237 238 250 245 232 234 238 242 251 254 257 256 253 226 233 247 255 254 245 240 234 230 230 227 229 237 240 244 250 257 265 260 256 264 255 257 258 253 252 248 238 239 242 237
248 245 220 230 236 237 235 234 241 252 260 257 257 252 259 258 253 249 253 240 237 240 236 234 237 242 241 241 249 254 257 261 266 264 266 270 266 259 253 249 247 242 233 234 234
231 242 216 216 224 238 238 232 239 248 260 260 259 255 249 255 257 252 250 247 246 246 245 247 251 247 243 249 253 255 255 253 258 266 264 274 275 266 254 251 245 240 237 230 229
221 233 205 208 219 230 235 227 229 239 264 263 245 246 237 239 253 258 242 240 245 248 248 257 252 248 243 253 255 256 257 261 260 264 261 247 283 276 270 252 243 240 235 226 222
214 223 203 206 217 224 222 226 213 210 314 225 215 210 197 189 203 245 227 237 245 251 239 243 256 253 248 246 246 249 264 262 261 265 271 263 263 286 282 259 241 239 236 228 219
208 207 200 213 208 214 216 206 195 185 251 206 192 193 194 205 215 223 219 224 238 252 252 253 258 256 258 252 245 250 260 242 240 250 251 253 237 275 263 262 254 243 241 231 225
210 196 204 220 202 204 204 188 169 206 200 213 194 197 211 227 241 241 238 212 222 227 237 247 247 250 249 254 243 237 234 212 220 220 239 245 236 250 261 278 265 249 243 233 230
211 215 207 193 192 184 193 185 183 205 208 187 173 189 221 241 252 243 236 243 237 236 245 236 252 247 244 238 232 227 215 210 209 222 230 236 243 244 263 262 256 267 234 226 229
216 207 208 193 198 185 196 183 208 211 214 208 214 224 245 236 221 225 237 250 249 235 231 249 250 259 249 239 221 212 215 227 245 285 280 235 254 269 263 261 248 238 226 225 223
209 211 226 187 184 185 194 200 193 196 193 199 220 237 218 213 208 213 241 264 251 243 243 240 255 261 253 227 225 229 237 207 205 220 243 257 259 252 257 272 263 239 241 233 226
211 200 195 186 185 188 192 198 195 202 212 226 247 247 239 231 220 224 248 253 250 246 217 224 234 248 225 220 222 213 223 211 226 222 221 290 259 285 284 272 280 246 231 223 233
232 242 193 181 177 197 206 201 208 219 235 254 256 261 242 238 236 241 247 251 287 234 207 221 236 243 242 244 241 236 230 219 210 206 231 273 267 242 309 272 257 246 223 238 221
221 214 185 185 181 191 199 212 216 222 241 255 257 241 240 229 230 243 254 274 239 250 235 239 232 252 270 241 238 224 220 231 226 229 230 222 256 265 313 303 268 244 217 195 186
189 160 177 188 197 199 204 213 221 224 249 258 262 258 232 238 225 217 234 44 273 264 251 257 250 228 236 243 220 223 226 228 218 226 233 238 260 255 291 317 225 208 206 198 185
182 181 180 187 194 201 215 216 219 231 252 258 249 245 227 239 240 234 239 261 275 268 263 261 258 261 266 269 256 251 228 224 221 223 220 241 253 264 271 308 236 232 222 200 190
180 174 188 203 199 205 211 219 222 230 232 242 245 278 267 237 234 291 239 260 282 273 265 259 262 281 292 309 255 238 242 226 219 218 225 237 257 244 292 284 213 211 193 182 182
182 187 187 191 201 202 215 213 232 234 245 250 282 268 258 280 263 201 230 255 271 291 281 277 268 293 294 27 133 219 214 214 218 220 220 232 255 264 209 229 208 206 181 171 173